Location: Barrio Las Umbrías
(40.4173°N, 4.8685°W)
Time: 14:09:05
(UTC+00:00)

Okean-O - Pass Details

Date: 17 August 2022
Orbit: 637 x 640 km, 98.1° (Epoch: 27 September)

Event Time Altitude Azimuth Distance (km) Brightness Sun altitude
Rises 20:05:11 0° 168° (SSE) 2,929 5.6 -9.8°
Reaches altitude 10° 20:07:23 10° 169° (S) 2,025 4.8 -10.2°
Maximum altitude 20:11:48 82° 257° (WSW) 652 2.7 -10.9°
Drops below altitude 10° 20:16:15 10° 345° (NNW) 2,040 5.9 -11.6°
Sets 20:18:28 0° 347° (NNW) 2,954 6.7 -12.0°
